sat.trackr.live / text

‹ back to catalog

ONEWEB-0058

NORAD 45161 · 2020-008AG

PAYLOAD ACTIVE UNKNOWN

§ Identity

Operator
Country
UK
Launch date
2020-02-06
Launch site
TYMSC
Launch vehicle
Mass (kg)
RCS (m²)

Purposes: comms

External: N2YO · Heavens-Above · Gunter

§ Orbital elements

Epoch: 2026-09-10T02:52:35.999040Z

Period
109.89 min
Inclination
87.8884°
Eccentricity
0.0001815
Mean motion
13.10370309 rev/d
Perigee alt
1,220.3 km
Apogee alt
1,223.1 km
Semi-major
7,599.9 km
B*
1.3809e-3
RAAN
19.3612°
Arg perigee
91.7357°
Mean anomaly
268.3978°
Rev number
31,954

§ Raw data

ONEWEB-00581 45161U 20008AG  26253.11986110  .00000495  00000+0  13809-2 0  99922 45161  87.8884  19.3612 0001815  91.7357 268.3978 13.10370309319543

JSON: /api/v1/satellites/45161 · /tle

For live sub-satellite position, see the globe view (requires WebGL).

§ Visibility from observer

Set your observer location to see the next 7 days of passes ≥ 10°. The values pass through the URL so the page stays shareable.

No JS? Fill the form by hand. The geolocation button needs JavaScript.